Observations
| Time | Sensor | AQI | SAQ | Temp °C | Hum % | Pres Pa | CO μg/m³ | H₂S μg/m³ | NO μg/m³ | NO₂ μg/m³ | O₃ μg/m³ | SO₂ μg/m³ | CO₂e PPM | VOC PPM | PM1 μg/m³ | PM2.5 μg/m³ | PM4 μg/m³ | PM10 μg/m³ | TPS µm |
|---|---|---|---|---|---|---|---|---|---|---|---|---|---|---|---|---|---|---|---|
| Tuesday 11 August 2026 | |||||||||||||||||||
| 22:03 | Trim Market St | 3 | 23.4 | 47 | 62,498 | 0 | 2.63 | 1.25 | 25.02 | 55.52 | 0 | 2.85 | 6.2 | 9.05 | |||||
| 22:03 | Trim Patrick St | 3 | 22.6 | 50 | 69,118 | 0 | 17.21 | 1.29 | 34.14 | 36.34 | 7.59 | 6.29 | 10.96 | 12.06 | |||||
| 22:02 | Trim Market St | 3 | 23.4 | 47 | 62,509 | 0 | 2.16 | 1.27 | 29.65 | 52.41 | 0 | 3.56 | 6.2 | 8.29 | |||||
| 22:02 | Trim Patrick St | 3 | 22.6 | 49 | 69,128 | 0 | 19.81 | 1.34 | 41.45 | 50.95 | 8.91 | 5.43 | 11.08 | 12.19 | |||||
| 22:01 | Trim Patrick St | 3 | 22.6 | 51 | 69,141 | 0 | 18.75 | 1.25 | 50.01 | 39.34 | 8.77 | 6.29 | 10.94 | 12.03 | |||||
| 22:00 | Trim Patrick St | 3 | 22.7 | 50 | 69,126 | 0 | 17 | 1.25 | 29.91 | 39.94 | 7.97 | 4.57 | 9.47 | 10.41 | |||||
| 21:59 | Trim Patrick St | 3 | 22.7 | 50 | 69,108 | 0 | 18.93 | 1.28 | 30.72 | 44.61 | 8.49 | 6.29 | 11.76 | 12.94 | |||||
| 21:58 | Trim Market St | 3 | 23.5 | 47 | 62,750 | 0 | 3.4 | 1.25 | 20.9 | 56.09 | 0 | 2.85 | 5.7 | 7.53 | |||||
| 21:58 | Trim Patrick St | 3 | 22.7 | 51 | 69,086 | 0 | 19.36 | 1.22 | 36.03 | 47.16 | 9.08 | 6.29 | 10.93 | 12.03 | |||||
| 21:57 | Trim Market St | 3 | 23.5 | 47 | 62,723 | 0 | 5.2 | 1.22 | 36.64 | 49.71 | 0 | 2.14 | 5.18 | 6 | |||||
| 21:57 | Trim Patrick St | 3 | 22.8 | 50 | 69,084 | 0 | 19.3 | 1.25 | 35.43 | 45.2 | 8.7 | 6.29 | 11.77 | 12.95 | |||||
| 21:56 | Trim Market St | 3 | 23.6 | 47 | 62,875 | 0 | 5.2 | 1.21 | 30.65 | 53.01 | 0 | 2.85 | 5.7 | 6.76 | |||||
| 21:56 | Trim Patrick St | 3 | 22.8 | 50 | 69,082 | 0 | 20.07 | 1.27 | 35.42 | 46.56 | 9.13 | 5.43 | 11.79 | 12.97 | |||||
| 21:55 | Trim Market St | 3 | 23.6 | 47 | 62,928 | 0 | 4.75 | 1.23 | 36.11 | 49.54 | 0 | 2.85 | 6.23 | 7.53 | |||||
| 21:55 | Trim Patrick St | 3 | 22.8 | 46 | 69,078 | 0 | 19.41 | 1.4 | 42.99 | 42.79 | 9.29 | 5.43 | 12.05 | 13.26 | |||||
| 21:54 | Trim Market St | 3 | 23.6 | 47 | 63,068 | 0 | 4.06 | 1.24 | 32.33 | 51.75 | 0 | 3.56 | 6.23 | 8.29 | |||||
| 21:52 | Trim Patrick St | 3 | 22.9 | 49 | 69,090 | 0 | 22.08 | 1.29 | 45.57 | 46.22 | 10.06 | 6.29 | 12.58 | 13.83 | |||||
| 21:51 | Trim Patrick St | 3 | 23 | 48 | 69,069 | 0 | 19.27 | 1.31 | 48.87 | 41.6 | 9.15 | 5.43 | 10.36 | 11.4 | |||||
| 21:51 | Trim Market St | 3 | 23.7 | 46 | 63,120 | 0 | 5.04 | 1.24 | 38.51 | 48.14 | 0 | 3.56 | 5.73 | 6.76 | |||||
| 21:50 | Trim Patrick St | 3 | 23 | 47 | 69,063 | 0 | 19.06 | 1.35 | 30.89 | 48.66 | 9.18 | 6.29 | 11.21 | 12.33 | |||||